Weather History for Frankfort, KY

Change the Weather History Date:

Thursday, January 17, 2013

  Actual Average Record
Temperature  
Mean Temperature 35 °F 32 °F  
Max Temperature 40 °F 42 °F 69 °F (1928)
Min Temperature 30 °F 23 °F -17 °F (1977)
Degree Days  
Heating Degree Days 30 33  
Month to date heating degree days 463 561  
Since 1 July heating degree days 2263 2393  
Cooling Degree Days 0 0  
Month to date cooling degree days 0 0  
Year to date cooling degree days 0 0  
Moisture  
Dew Point 29 °F    
Average Humidity 82    
Maximum Humidity 100    
Minimum Humidity 64    
Precipitation  
Precipitation 0.00 in 0.11 in 1.16 in (2006)
Month to date precipitation 3.52 1.95  
Year to date precipitation 3.52 1.95  
Sea Level Pressure  
Sea Level Pressure 30.21 in    
Wind  
Wind Speed 4 mph (NNE)    
Max Wind Speed 14 mph    
Max Gust Speed 28 mph    
Visibility 8 miles    
Events      
T = Trace of Precipitation, MM = Missing Value Source: NWS Daily Summary

Daily Weather History Graph

Daily Weather History Graph

Search for Another Location

Airport:

Trip Planner

Search our weather history database for the weather conditions in past years. The results will help you decide how hot, cold, wet, or windy it might be!

Date:

Astronomy

Jan. 17, 2013 Rise Set
Actual Time 7:53 AM EST 5:46 PM EST
Civil Twilight 7:25 AM EST 6:14 PM EST
Nautical Twilight 6:52 AM EST 6:47 PM EST
Astronomical Twilight 6:21 AM EST 7:18 PM EST
Moon 11:07 AM EST (1/17) No Moon Set
Length of Visible Light 10h 49m
Length of Day
9h 52m
Waxing Crescent, 37% of the Moon is Illuminated
Jan 17
Waxing Crescent
Jan 18
First Quarter
Jan 26
Full
Feb 3
Last Quarter
Feb 10
New

Hourly Weather History & Observations

Time (EST) Temp. Windchill Dew Point Humidity Pressure Visibility Wind Dir Wind Speed Gust Speed Precip Events Conditions
12:53 AM 30.9 °F 27.5 °F 30.0 °F 96% 30.14 in 5.0 mi West 3.5 mph - N/A   Clear
1:53 AM 30.9 °F - 28.9 °F 92% 30.15 in 6.0 mi Calm Calm - N/A   Clear
2:53 AM 30.9 °F - 28.9 °F 92% 30.14 in 6.0 mi Calm Calm - N/A   Clear
3:53 AM 30.9 °F - 28.9 °F 92% 30.15 in 6.0 mi Calm Calm - N/A   Scattered Clouds
4:53 AM 32.0 °F - 28.9 °F 88% 30.13 in 6.0 mi Calm Calm - N/A   Overcast
5:53 AM 30.9 °F - 28.9 °F 92% 30.15 in 5.0 mi Calm Calm - N/A   Mostly Cloudy
6:53 AM 30.9 °F - 28.9 °F 92% 30.16 in 6.0 mi Calm Calm - N/A   Clear
7:53 AM 30.9 °F 27.5 °F 28.0 °F 89% 30.16 in 7.0 mi ENE 3.5 mph - N/A   Clear
8:53 AM 30.9 °F 26.2 °F 28.0 °F 89% 30.18 in 5.0 mi North 4.6 mph - N/A   Clear
9:53 AM 30.9 °F 26.2 °F 28.0 °F 89% 30.22 in 6.0 mi North 4.6 mph - N/A   Clear
10:53 AM 32.0 °F 24.8 °F 28.0 °F 85% 30.20 in 7.0 mi NNE 8.1 mph - N/A   Clear
12:53 PM 37.0 °F 29.8 °F 30.9 °F 79% 30.15 in 10.0 mi ENE 10.4 mph - N/A   Clear
1:53 PM 37.9 °F 30.5 °F 30.0 °F 73% 30.14 in 10.0 mi ENE 11.5 mph - N/A   Partly Cloudy
2:53 PM 39.9 °F 33.9 °F 30.9 °F 70% 30.14 in 10.0 mi North 9.2 mph - N/A   Partly Cloudy
3:45 PM 39.2 °F 33.6 °F 30.2 °F 70% 30.14 in 10.0 mi ENE 8.1 mph - N/A   Mostly Cloudy
3:53 PM 39.0 °F 33.4 °F 28.9 °F 67% 30.17 in 10.0 mi NE 8.1 mph - N/A   Mostly Cloudy
4:00 PM 39.2 °F 33.0 °F 30.2 °F 70% 30.15 in 10.0 mi NE 9.2 mph - N/A   Scattered Clouds
4:53 PM 39.0 °F 34.8 °F 30.0 °F 70% 30.20 in 10.0 mi ENE 5.8 mph - N/A   Partly Cloudy
5:53 PM 37.9 °F 35.5 °F 30.0 °F 73% 30.24 in 10.0 mi East 3.5 mph - N/A   Overcast
6:53 PM 36.0 °F - 30.9 °F 82% 30.26 in 10.0 mi Calm Calm - N/A   Mostly Cloudy
7:53 PM 32.0 °F - 30.0 °F 92% 30.30 in 8.0 mi Calm Calm - N/A   Mostly Cloudy
8:53 PM 34.0 °F 29.8 °F 30.0 °F 85% 30.32 in 9.0 mi WNW 4.6 mph - N/A   Mostly Cloudy
9:53 PM 34.0 °F 27.2 °F 26.1 °F 73% 30.37 in 10.0 mi NW 8.1 mph - N/A   Clear
10:53 PM 32.0 °F 25.6 °F 25.0 °F 75% 30.39 in 10.0 mi NW 6.9 mph - N/A   Clear
11:53 PM 30.0 °F 25.2 °F 23.0 °F 75% 30.40 in 10.0 mi NW 4.6 mph - N/A   Clear